DateTimeUTC,F1_A11,F1_S11,BsB_S11,BsG_S11,BsR_S11,BbsB_S11,BbsG_S11,BbsR_S11,BaB_A11,BaG_A11,BaR_A11,Tu_S11,T_S11,Uu_S11,U_S11,P_S11,T1_A11
2021-06-07T10:00:00Z,00000200,20000000,,,,,,,-000.09,0000.03,-000.29,17.6,24.3,06.6,04.4,0672.1,30.9
2021-06-07T10:01:00Z,00000200,20000000,,,,,,,-000.08,-000.05,0000.02,17.6,24.3,06.6,04.4,0672.1,30.9
2021-06-07T10:02:00Z,00000200,20000000,,,,,,,0000.27,0000.37,0000.05,17.6,24.3,06.6,04.4,0672.1,30.9
2021-06-07T10:03:00Z,00000200,60000000,,,,,,,0000.15,-000.47,0000.46,17.6,24.3,06.6,04.4,0672.1,30.9
2021-06-07T10:04:00Z,00000200,40000000,0000.72,0000.50,0000.36,0000.38,0000.05,0000.21,0000.60,0000.57,0000.27,17.7,24.1,06.8,04.6,0673.0,30.9
2021-06-07T10:05:00Z,00000200,00000000,0000.77,0000.52,0000.39,-000.18,-000.04,-000.03,0000.50,0000.64,0000.37,17.8,24.1,07.0,04.7,0673.1,30.9
2021-06-07T10:06:00Z,00000200,00000000,0001.27,0000.97,0000.31,0000.52,0000.02,-000.14,0000.46,0000.33,0000.34,17.8,24.1,07.0,04.8,0673.1,30.9
2021-06-07T10:07:00Z,00000200,00000000,0000.63,0000.88,0000.22,0000.44,0000.15,-000.22,0000.28,0000.56,0000.28,17.8,24.0,07.1,04.8,0673.1,30.9
2021-06-07T10:08:00Z,00000200,00000000,0000.46,0000.75,0000.37,0000.49,-000.12,0000.08,0000.05,0000.06,-000.09,17.8,24.1,07.2,04.9,0673.1,30.9
2021-06-07T10:09:00Z,00000200,00000000,0000.74,0000.59,0000.45,-000.02,0000.00,0000.12,0000.28,0000.05,0000.22,17.8,24.0,07.1,04.8,0673.1,30.9
2021-06-07T10:10:00Z,00000200,00000000,0001.44,0000.65,0000.42,0000.44,0000.30,-000.24,0000.25,0000.16,0000.24,17.8,24.0,07.2,04.9,0673.1,30.9
2021-06-07T10:11:00Z,00000200,00000000,0001.08,0000.37,0000.62,0000.32,0000.27,-000.07,0000.44,0000.70,0000.14,17.8,24.0,07.2,04.9,0673.1,31.0
2021-06-07T10:12:00Z,00000200,00000000,0000.87,0000.89,0000.40,0000.73,0000.15,0000.25,0000.58,0000.26,0000.39,17.8,24.0,07.3,05.0,0673.1,30.9
2021-06-07T10:13:00Z,00000200,00000000,0001.01,0000.80,0000.52,0000.37,0000.06,0000.14,-000.12,0000.05,0000.09,17.8,24.1,07.3,04.9,0673.2,30.9
2021-06-07T10:14:00Z,00000200,00000000,0000.84,0000.53,0000.24,0000.39,-000.07,-000.06,0000.10,0000.07,0000.16,17.8,24.0,07.2,04.9,0673.2,30.9
2021-06-07T10:15:00Z,00000200,00000000,0001.26,0000.63,0000.55,0000.10,-000.19,-000.15,0000.49,0000.43,-000.13,17.8,24.1,06.9,04.7,0673.1,30.9
2021-06-07T10:16:00Z,00000200,00000000,0000.66,0000.69,0000.41,0000.26,0000.27,0000.02,-000.18,-000.55,-000.08,17.8,24.0,07.0,04.7,0673.2,30.9
2021-06-07T10:17:00Z,00000200,00000000,0001.20,0000.34,0000.36,0000.27,-000.09,0000.14,0000.28,0000.55,0000.55,17.8,24.0,06.9,04.7,0673.1,30.9
2021-06-07T10:18:00Z,00000200,00000000,0000.43,0000.74,0000.37,0000.20,0000.29,-000.19,0000.40,0000.46,0000.19,17.8,24.0,07.0,04.8,0673.1,30.9
2021-06-07T10:19:00Z,00000200,00000000,0001.33,0000.72,0000.26,0000.55,0000.11,0000.07,0000.37,0000.39,0000.62,17.8,24.0,07.2,04.9,0673.1,30.9
2021-06-07T10:20:00Z,00000200,00000000,0001.14,0000.56,0000.63,0000.43,0000.04,0000.20,-000.75,-001.01,-000.69,17.8,24.0,06.9,04.7,0673.1,30.9
2021-06-07T10:21:00Z,00000200,00000000,0001.30,0000.70,0000.30,0000.30,0000.15,0000.01,0000.03,0000.26,-000.19,17.8,24.1,06.2,04.3,0673.1,30.9
2021-06-07T10:22:00Z,00000200,00000000,0000.80,0000.61,0000.23,0000.53,0000.17,0000.01,0001.07,0001.08,0000.78,17.9,24.1,06.5,04.5,0673.1,30.9
2021-06-07T10:23:00Z,00000200,00000000,0001.12,0000.67,0000.19,0000.78,0000.19,0000.12,0000.55,0000.50,0000.18,17.9,24.0,06.9,04.7,0673.1,30.9
2021-06-07T10:24:00Z,00000200,00000000,0001.10,0000.52,0000.56,0000.14,0000.13,-000.03,0000.12,0000.15,0000.56,17.9,24.0,07.0,04.8,0673.1,30.9
2021-06-07T10:25:00Z,00000200,00000000,0000.87,0000.55,0000.34,0000.59,0000.14,-000.12,0000.07,-000.30,-000.21,17.9,24.1,06.9,04.7,0673.1,31.0
2021-06-07T10:26:00Z,00000200,00000000,0000.92,0000.58,0000.56,0000.80,-000.10,0000.18,-000.08,0000.00,-000.08,17.9,24.0,06.8,04.6,0673.1,30.9
2021-06-07T10:27:00Z,00000200,00000000,0001.51,0000.75,0000.29,0000.10,0000.01,0000.14,0000.29,0000.21,-000.01,17.9,24.0,06.5,04.5,0673.1,30.9
2021-06-07T10:28:00Z,00000200,00000000,0000.49,0000.57,0000.42,0000.00,-000.16,0000.22,0000.60,0000.63,0000.74,17.9,24.0,06.7,04.6,0673.1,30.9
2021-06-07T10:29:00Z,00000200,00000000,0000.92,0000.68,0000.48,0000.18,0000.05,0000.21,0000.21,0000.15,-000.18,17.9,24.1,06.8,04.7,0673.1,30.9
2021-06-07T10:30:00Z,00000200,00000000,0001.29,0000.65,0000.38,0000.06,-000.03,0000.22,0000.54,0000.63,0000.69,17.9,24.0,06.8,04.6,0673.1,30.9
2021-06-07T10:31:00Z,00000200,00000000,0001.13,0000.78,0000.39,-000.16,0000.33,-000.07,0000.33,0000.31,0000.27,17.9,24.0,06.9,04.7,0673.1,30.9
2021-06-07T10:32:00Z,00000200,00000000,0001.59,0000.50,0000.18,0000.87,0000.08,0000.13,0000.02,0000.25,-000.12,17.9,24.0,07.0,04.8,0673.1,30.9
2021-06-07T10:33:00Z,00000200,00000000,0000.96,0000.81,0000.22,-000.12,0000.04,-000.01,0000.47,0000.18,0000.41,17.9,24.1,06.9,04.7,0673.1,30.9
2021-06-07T10:34:00Z,00000200,00000000,0000.45,0000.72,0000.38,-000.05,0000.03,-000.04,0000.40,0000.00,-000.08,17.9,24.1,07.1,04.8,0673.1,30.9
2021-06-07T10:35:00Z,00000200,00000000,0000.61,0000.23,0000.28,0000.27,0000.18,0000.07,-000.01,0000.36,0000.47,17.9,24.1,06.9,04.7,0673.1,30.9
2021-06-07T10:36:00Z,00000200,00000000,0001.20,0000.76,0000.83,0000.45,0000.18,-000.05,0000.07,-000.06,0000.11,17.9,24.1,07.0,04.8,0673.1,30.9
2021-06-07T10:37:00Z,00000200,00000000,0000.75,0000.51,0000.39,0000.78,0000.15,-000.01,-000.23,0000.01,-000.15,17.9,24.0,06.6,04.5,0673.1,30.9
2021-06-07T10:38:00Z,00000200,00000000,0000.12,0000.45,0000.32,0000.90,-000.03,0000.14,0000.08,-000.21,-000.09,17.9,24.0,06.4,04.4,0673.1,30.9
2021-06-07T10:39:00Z,00000200,00000000,0001.06,0000.85,0000.28,0000.83,0000.23,0000.11,0000.19,0000.58,0000.26,17.9,24.1,06.3,04.3,0673.2,30.9
2021-06-07T10:40:00Z,00000200,00000000,0001.41,0000.71,0000.56,0000.13,0000.11,-000.06,0000.85,0000.67,0000.68,17.9,24.1,06.5,04.5,0673.1,30.9
2021-06-07T10:41:00Z,00000200,00000000,0000.39,0000.74,0000.52,0000.29,0000.33,0000.11,0000.28,-000.01,-000.15,17.9,24.1,06.7,04.6,0673.1,30.9
2021-06-07T10:42:00Z,00000200,00000000,0000.63,0000.61,0000.44,0000.18,0000.37,0000.01,-000.18,-000.08,-000.19,17.9,24.1,06.5,04.5,0673.1,30.9
2021-06-07T10:43:00Z,00000200,00000000,0000.99,0000.51,0000.47,0000.63,0000.11,0000.15,0000.14,0000.19,0000.52,17.9,24.1,06.3,04.3,0673.2,31.0
2021-06-07T10:44:00Z,00000200,00000000,0000.43,0000.60,0000.20,0000.39,0000.35,-000.23,0000.84,0000.58,0000.26,17.9,24.1,06.3,04.4,0673.2,30.9
2021-06-07T10:45:00Z,00000200,00000000,0000.73,0000.61,0000.27,0000.78,0000.25,-000.06,-000.10,-000.11,-000.05,17.9,24.1,06.6,04.5,0673.1,30.9
2021-06-07T10:46:00Z,00000200,00000000,0000.88,0000.63,0000.47,0000.53,0000.03,0000.07,0000.35,0000.75,0000.54,17.9,24.1,06.4,04.4,0673.1,30.9
2021-06-07T10:47:00Z,00000200,00000000,0000.71,0000.55,0000.36,0000.36,0000.13,0000.01,0000.18,0000.13,0000.17,17.9,24.1,06.4,04.4,0673.1,30.9
2021-06-07T10:48:00Z,00000200,00000000,0000.44,0000.60,0000.40,0000.29,-000.11,-000.26,-000.38,-000.23,-000.08,17.9,24.1,06.3,04.3,0673.1,30.9
2021-06-07T10:49:00Z,00000200,00000000,0000.58,0000.25,0000.40,0000.39,0000.04,0000.04,0000.49,0000.40,-000.12,18.0,24.1,06.2,04.3,0673.1,30.9
2021-06-07T10:50:00Z,00000200,00000000,0000.87,0000.71,0000.18,0000.49,0000.30,0000.10,0000.05,-000.02,0000.48,17.9,24.1,06.2,04.3,0673.1,30.9
2021-06-07T10:51:00Z,00000200,00000000,0001.10,0000.65,0000.39,0000.55,0000.18,0000.15,-000.14,0000.08,-000.36,18.0,24.1,06.1,04.2,0673.1,30.9
2021-06-07T10:52:00Z,00000200,00000000,0000.42,0000.57,0000.47,-000.10,0000.12,-000.11,0000.55,0000.22,0000.68,18.0,24.1,06.1,04.2,0673.2,30.9
2021-06-07T10:53:00Z,00000200,00000000,0000.71,0000.61,0000.34,0000.55,-000.11,0000.17,0000.33,0000.28,0000.07,18.0,24.1,06.0,04.2,0673.1,30.9
2021-06-07T10:54:00Z,00000200,00000000,0000.47,0000.76,0000.13,0000.21,0000.01,-000.22,0000.44,0000.58,0000.34,18.0,24.1,06.2,04.2,0673.2,30.9
2021-06-07T10:55:00Z,00000200,00000000,0000.46,0000.24,0000.49,0000.43,0000.07,0000.15,0000.40,0000.04,0000.02,18.0,24.1,06.3,04.3,0673.2,30.9
2021-06-07T10:56:00Z,00000200,00000000,-000.20,0000.62,0000.41,0000.36,0000.09,0000.22,0000.13,0000.45,0000.39,18.0,24.1,06.3,04.4,0673.1,30.9
2021-06-07T10:57:00Z,00000200,40000000,,,,,,,0000.55,0000.28,0000.07,18.1,24.1,06.7,04.6,0673.3,31.0
2021-06-07T10:58:00Z,00000200,60000000,,,,,,,-000.33,-000.30,-000.08,17.8,24.2,06.4,04.3,0672.3,31.0
2021-06-07T10:59:00Z,00000200,20000000,,,,,,,-000.25,0000.09,0000.02,17.8,24.3,06.4,04.3,0672.2,30.9
